Preview of NWS' New Version of Forecast
This preview is not operational and should not be used for support decisions.

Regional Weather Roundup (RWR)

Issued by National Weather Service (NWS)

                            
000
ASUS44 KJAN 191410
RWRMS 

MISSISSIPPI HOURLY WEATHER ROUNDUP
NATIONAL WEATHER SERVICE JACKSON MS
900 AM CDT THU SEP 19 2019

NOTE: "FAIR: INDICATES FEW OR NO CLOUDS BELOW 12,000 FEET WITH NO
SIGNIFICANT WEATHER AND/OR OBSTRUCTIONS TO VISIBILITY.

MSZ001>002-007>008-010>013-018>021-025>028-034>036-191500-
NORTHWEST MISSISSIPPI
  
CITY           SKY/WX    TMP DP  RH WIND       PRES   REMARKS
BATESVILLE     FAIR      81  72  74 SE7       30.02R                  
CLARKSDALE       N/A     79  73  83 E9        30.01R                  
CLEVELAND      FAIR      82  72  72 CALM      30.00R                  
GREENWOOD      FAIR      80  70  71 SE8       30.00R                  
GREENVILLE     FAIR      81  71  71 CALM      30.00R                  
OLIVE BRANCH   SUNNY     81  70  69 SE9       30.03R                  
OXFORD         FAIR      79  70  73 SE13G25   30.05R                  
TUNICA           N/A     79  70  73 SE9       30.02R                  
WINONA         FAIR      77  71  80 SE7       30.03R                  
$$

MSZ003>006-009-014>017-022>024-029>033-037>039-191500-
NORTHEAST MISSISSIPPI
  
CITY           SKY/WX    TMP DP  RH WIND       PRES   REMARKS
ABERDEEN       FAIR      79  61  53 SE13      30.07R                  
COLUMBUS AFB   FAIR      79  71  75 SE14G22   30.05R                  
CORINTH        FAIR      77  68  73 SE9       30.06R                  
GOLDN TRIANGLE PTSUNNY   80  72  76 SE20      30.06R                  
STARKVILLE     FAIR      77  70  78 SE10G18   30.05R                  
TUPELO         FAIR      79  69  71 SE10      30.05R                  
$$

MSZ040-058-191500-
CENTRAL MISSISSIPPI
  
CITY           SKY/WX    TMP DP  RH WIND       PRES   REMARKS
JACKSON INTL   FAIR      81  71  71 NE3       30.01R                  
JACKSON HAWKNS FAIR      80  72  76 E5        30.01R                  
MADISON        FAIR      79  73  83 CALM      30.02R                  
MERIDIAN KEY   PTSUNNY   80  71  74 SE14      30.04R                  
MERIDIAN NAS   CLOUDY    77  70  79 SE13G22   30.05R                  
RAYMOND        FAIR      79  75  89 E5        30.01R                  
VICKSBURG VKS  SUNNY     79  75  89 CALM      30.00S                  
$$

MSZ059>079-191500-
SOUTH MISSISSIPPI
  
CITY           SKY/WX    TMP DP  RH WIND       PRES   REMARKS
HATTIESBURG    FAIR      79  70  74 E3        30.02R                  
LAUREL         SUNNY     79  71  74 E8        30.02R                  
MCCOMB         FAIR      78  70  76 E3        30.02R                  
NATCHEZ        FAIR      78  71  79 E3        30.01R                  
PINE BELT        N/A    N/A N/A N/A MISG        N/A                   
$$

MSZ080>082-191500-
COASTAL MISSISSIPPI
  
CITY           SKY/WX    TMP DP  RH WIND       PRES   REMARKS
BAY ST LOUIS   MOSUNNY   79  72  78 CALM      30.01R                  
BILOXI         FAIR      81  72  72 SE3       30.00R                  
PASCAGOULA     NOT AVBL                                               
GULFPORT       NOT AVBL                                               
$$

LAZ007>009-015>016-023>026-191500-
NORTHEAST LOUISIANA
  
CITY           SKY/WX    TMP DP  RH WIND       PRES   REMARKS
BASTROP        FAIR      79  72  80 E3        30.00R                  
TALLULAH/VBURG FAIR      82  71  69 E6        29.99S                  
VIDALIA        FAIR      79  72  79 S3        30.00R                  
$$